Home > Weather > Provo > Past weeks

Flag for USA Weather for the Past 2 Weeks in Provo, Utah, USA

Now
57 °F

Thunderstorms. Partly sunny.


Feels Like: 55 °F
Forecast: 54 / 72 °F
Wind: 9 mph from Northwest

Location: Provo Municipal

Current Time: May 6, 2016 at 4:41:38 PM

Latest Report: May 6, 2016 at 3:49 PM


Visibility: 10 mi

Pressure: 29.77 "Hg (25.24 "Hg at 1386m altitude)

Humidity: 72%

Dew Point: 48 °F

Location of ProvoLocation

Historic Weather in Provo — Graph

°F

Provo Temperature Yesterday

Maximum temperature yesterday: 84 °F (at 1:49 PM)
Minimum temperature yesterday: 57 °F (at 6:15 AM)
Average temperature yesterday: 68 °F

High & Low Weather Summary for the Past Weeks

 TemperatureHumidityPressure
High84 °F (May 5, 1:49 PM)87% (Apr 24, 2:15 AM)30.27 "Hg (Apr 24, 2:15 AM)
Low37 °F (Apr 30, 3:55 AM)16% (May 5, 1:49 PM)29.58 "Hg (Apr 25, 1:19 PM)
Average54 °F53%29.92 "Hg
* Reported Apr 21 2:47 PM — May 6 2:49 PM, Provo, Weather by CustomWeather, © 2016

Note: Actual official high and low records may vary slightly from our data, if they occured in-between our weather recording intervals... More about our weather records

Advertising

Provo Weather History for the Previous 24 Hours

Scroll right to see more
 ConditionsComfort  
Time TempWeatherWind HumidityBarometerVisibility
2:49 PM
Fri, May 6
61 °FScattered showers. Partly sunny.9 mph68%29.78 "Hg10 mi
1:53 PM61 °FThunderstorms. Partly sunny.9 mph59%29.75 "Hg10 mi
12:47 PM61 °FScattered showers. Partly sunny.9 mph59%29.78 "Hg10 mi
11:47 AM64 °FThunderstorms. Mostly cloudy.12 mph52%29.79 "Hg10 mi
10:50 AM64 °FBroken clouds.12 mph46%29.81 "Hg10 mi
9:47 AM66 °FBroken clouds.12 mph43%29.82 "Hg10 mi
8:47 AM61 °FBroken clouds.8 mph55%29.82 "Hg10 mi
7:47 AM61 °FPartly sunny.13 mph55%29.83 "Hg10 mi
6:55 AM61 °FThunderstorms. Passing clouds.8 mph55%29.85 "Hg10 mi
6:35 AM61 °FThunderstorms. Partly cloudy.15 mph55%29.85 "Hg10 mi
6:15 AM63 °FThundershowers. Passing clouds.20 mph49%29.83 "Hg9 mi
5:55 AM63 °FPassing clouds.14 mph49%29.81 "Hg10 mi
5:35 AM64 °FPassing clouds.9 mph40%29.80 "Hg10 mi
5:15 AM61 °FOvercast.16 mph52%29.81 "Hg10 mi
4:55 AM63 °FPassing clouds.5 mph49%29.81 "Hg10 mi
4:35 AM63 °FPassing clouds.10 mph49%29.82 "Hg10 mi
4:15 AM66 °FOvercast.20 mph37%29.82 "Hg10 mi
3:55 AM66 °FPassing clouds.15 mph35%29.80 "Hg10 mi
3:35 AM68 °FPassing clouds.17 mph33%29.81 "Hg10 mi
3:15 AM68 °FPassing clouds.23 mph33%29.81 "Hg10 mi
2:55 AM70 °FPassing clouds.24 mph31%29.81 "Hg10 mi
2:35 AM70 °FPassing clouds.16 mph31%29.82 "Hg10 mi
2:15 AM72 °FPassing clouds.20 mph27%29.81 "Hg10 mi
1:55 AM72 °FPassing clouds.21 mph27%29.81 "Hg10 mi
1:35 AM72 °FClear.23 mph27%29.81 "Hg10 mi
1:15 AM72 °FClear.26 mph27%29.80 "Hg10 mi
12:55 AM72 °FClear.15 mph27%29.80 "Hg10 mi
12:35 AM73 °FClear.21 mph25%29.81 "Hg10 mi
11:55 PM
Thu, May 5
72 °FPassing clouds.25 mph27%29.81 "Hg10 mi
11:35 PM72 °FPassing clouds.20 mph27%29.81 "Hg10 mi
11:15 PM72 °FClear.20 mph27%29.81 "Hg10 mi
10:35 PM72 °FClear.23 mph27%29.83 "Hg10 mi
10:15 PM72 °FClear.24 mph27%29.82 "Hg10 mi
9:15 PM72 °FSunny.18 mph27%29.81 "Hg10 mi
8:55 PM73 °FSunny.16 mph25%29.81 "Hg10 mi
7:50 PM73 °FPartly sunny.12 mph25%29.79 "Hg10 mi
6:50 PM75 °FPartly sunny.12 mph25%29.79 "Hg10 mi
5:50 PM79 °FPartly sunny.12 mph20%29.81 "Hg10 mi
4:50 PM81 °FPartly sunny.12 mph20%29.83 "Hg10 mi
Weather by CustomWeather, © 2016

See weather overviewHow to use our weather pages